Zurück zum Katalog

STARLINK-11353

AktivKommunikationVLEO
NORAD 61941·PAYLOAD·🇺🇸 United States

Gestartet Nov 14, 2024 von Vandenberg Space Force Base

Loading…

Nächste Überflüge (nächste 24 Stunden)

TLE

AktuellSource: CelesTrak SupGP

Epoche: Sep 15, 2026, 01:59 UTC

1 61941C 24209C   26258.08312500 -.00006881  00000+0 -56672-4 0  2582
2 61941  53.1568 157.2835 0001267  83.9441 106.1324 15.69716031    14

Verfolge STARLINK-11353 in Echtzeit mit AllMySat

Download on the App Store